• In Hungary
  • List of Countries
  • For 7 days
  • Water Temperature
  • Satellite Maps
  • Weather Map
  • News
  • Weather Widgets
  • user-avatar
    Login

    Hourly Weather Igls

    Today, 20 August, Monday

    Time Temperature Precipitation Wind Pressure Humidity
    00:00 +16°C° 0.3 mm 1 mps 688 mmHg 94%
    01:00 +18°C° 0 mm 1 mps 688 mmHg 95%
    02:00 +16°C° 0.1 mm 1 mps 688 mmHg 95%
    03:00 +16°C° 0.1 mm 1 mps 688 mmHg 95%
    04:00 +16°C° 0.1 mm 1 mps 688 mmHg 95%
    05:00 +18°C° 0 mm 1 mps 688 mmHg 94%
    06:00 +19°C° 0 mm 1 mps 688 mmHg 92%
    07:00 +20°C° 0 mm 1 mps 689 mmHg 89%
    08:00 +22°C° 0 mm 1 mps 689 mmHg 80%
    09:00 +24°C° 0 mm 1 mps 689 mmHg 70%
    10:00 +26°C° 0 mm 1 mps 689 mmHg 61%
    11:00 +26°C° 0.3 mm 2 mps 689 mmHg 59%
    12:00 +27°C° 0.3 mm 2 mps 689 mmHg 57%
    13:00 +27°C° 0.3 mm 2 mps 689 mmHg 55%
    14:00 +26°C° 1 mm 2 mps 689 mmHg 60%
    15:00 +26°C° 1 mm 2 mps 688 mmHg 65%
    16:00 +25°C° 1 mm 2 mps 688 mmHg 70%
    17:00 +24°C° 0.8 mm 2 mps 688 mmHg 77%
    18:00 +22°C° 0.8 mm 1 mps 688 mmHg 83%
    19:00 +20°C° 0.8 mm 1 mps 688 mmHg 90%
    20:00 +20°C° 0.1 mm 1 mps 688 mmHg 92%
    21:00 +19°C° 0.1 mm 1 mps 688 mmHg 94%
    22:00 +18°C° 0.1 mm 1 mps 688 mmHg 96%
    23:00 +18°C° 0 mm 1 mps 688 mmHg 96%

    Tomorrow, 21 August, Tuesday

    Time Temperature Precipitation Wind Pressure Humidity
    00:00 +16°C° 0 mm 1 mps 688 mmHg 96%
    01:00 +16°C° 0 mm 1 mps 688 mmHg 96%
    02:00 +16°C° 0 mm 1 mps 688 mmHg 96%
    03:00 +15°C° 0 mm 1 mps 688 mmHg 96%
    04:00 +15°C° 0 mm 1 mps 688 mmHg 96%
    05:00 +16°C° 0 mm 1 mps 688 mmHg 94%
    06:00 +16°C° 0 mm 0 mps 688 mmHg 91%
    07:00 +17°C° 0 mm 0 mps 688 mmHg 89%
    08:00 +19°C° 0 mm 0 mps 689 mmHg 79%
    09:00 +23°C° 0 mm 1 mps 689 mmHg 69%
    10:00 +26°C° 0 mm 1 mps 689 mmHg 59%
    11:00 +26°C° 0.2 mm 1 mps 689 mmHg 57%
    12:00 +27°C° 0.2 mm 1 mps 689 mmHg 54%
    13:00 +28°C° 0.2 mm 1 mps 689 mmHg 52%
    14:00 +27°C° 0.8 mm 1 mps 689 mmHg 57%
    15:00 +26°C° 0.8 mm 1 mps 688 mmHg 61%
    16:00 +26°C° 0.8 mm 1 mps 688 mmHg 66%
    17:00 +24°C° 0.8 mm 1 mps 688 mmHg 74%
    18:00 +22°C° 0.8 mm 1 mps 688 mmHg 83%
    19:00 +21°C° 0.8 mm 1 mps 687 mmHg 91%
    20:00 +20°C° 0.3 mm 1 mps 687 mmHg 92%
    21:00 +20°C° 0.3 mm 1 mps 688 mmHg 92%
    22:00 +19°C° 0.3 mm 1 mps 688 mmHg 93%
    23:00 +19°C° 0.1 mm 1 mps 688 mmHg 93%

    Day after tomorrow, 22 August, Wednesday

    Time Temperature Precipitation Wind Pressure Humidity
    00:00 +18°C° 0.1 mm 1 mps 688 mmHg 93%
    01:00 +17°C° 0.1 mm 2 mps 688 mmHg 93%
    02:00 +17°C° 0.1 mm 2 mps 688 mmHg 93%
    03:00 +16°C° 0.1 mm 2 mps 687 mmHg 93%
    04:00 +16°C° 0.1 mm 2 mps 687 mmHg 93%
    05:00 +18°C° 0.1 mm 1 mps 687 mmHg 91%
    06:00 +19°C° 0.1 mm 1 mps 688 mmHg 89%
    07:00 +20°C° 0.1 mm 1 mps 688 mmHg 87%
    08:00 +22°C° 0.1 mm 1 mps 688 mmHg 77%
    09:00 +24°C° 0.1 mm 1 mps 688 mmHg 68%
    10:00 +26°C° 0.1 mm 1 mps 689 mmHg 59%
    11:00 +26°C° 1 mm 1 mps 688 mmHg 60%
    12:00 +27°C° 1 mm 1 mps 688 mmHg 61%
    13:00 +27°C° 1 mm 1 mps 688 mmHg 63%
    14:00 +26°C° 2.3 mm 1 mps 688 mmHg 68%
    15:00 +25°C° 2.3 mm 1 mps 687 mmHg 73%
    16:00 +24°C° 2.3 mm 1 mps 687 mmHg 78%
    17:00 +23°C° 1.6 mm 1 mps 687 mmHg 82%
    18:00 +22°C° 1.6 mm 1 mps 687 mmHg 87%
    19:00 +21°C° 1.6 mm 1 mps 687 mmHg 91%
    20:00 +20°C° 0.7 mm 1 mps 687 mmHg 92%
    21:00 +20°C° 0.7 mm 1 mps 687 mmHg 92%
    22:00 +19°C° 0.7 mm 1 mps 687 mmHg 93%
    23:00 +19°C° 0.3 mm 1 mps 687 mmHg 93%

    23 August, Thursday

    Time Temperature Precipitation Wind Pressure Humidity
    00:00 +19°C° 0.3 mm 1 mps 687 mmHg 93%
    01:00 +19°C° 0.3 mm 1 mps 687 mmHg 93%
    02:00 +18°C° 0.1 mm 1 mps 687 mmHg 93%
    03:00 +18°C° 0.1 mm 1 mps 687 mmHg 92%
    04:00 +18°C° 0.1 mm 1 mps 686 mmHg 92%
    05:00 +18°C° 0.1 mm 1 mps 686 mmHg 91%
    06:00 +19°C° 0.1 mm 1 mps 687 mmHg 89%
    07:00 +20°C° 0.1 mm 1 mps 687 mmHg 88%
    08:00 +21°C° 0.1 mm 1 mps 687 mmHg 79%
    09:00 +21°C° 0.1 mm 0 mps 687 mmHg 71%
    10:00 +23°C° 0.1 mm 0 mps 687 mmHg 63%
    11:00 +26°C° 0.4 mm 1 mps 687 mmHg 62%
    12:00 +26°C° 0.4 mm 1 mps 687 mmHg 61%
    13:00 +26°C° 0.4 mm 1 mps 686 mmHg 60%
    14:00 +26°C° 1.3 mm 1 mps 686 mmHg 65%
    15:00 +25°C° 1.3 mm 1 mps 686 mmHg 70%
    16:00 +24°C° 1.3 mm 1 mps 686 mmHg 76%
    17:00 +23°C° 2.3 mm 1 mps 685 mmHg 81%
    18:00 +21°C° 2.3 mm 1 mps 685 mmHg 87%
    19:00 +20°C° 2.3 mm 1 mps 685 mmHg 92%
    20:00 +19°C° 0.8 mm 1 mps 685 mmHg 93%
    21:00 +19°C° 0.8 mm 1 mps 685 mmHg 93%
    22:00 +19°C° 0.8 mm 1 mps 685 mmHg 94%
    23:00 +18°C° 0.1 mm 1 mps 685 mmHg 93%

    24 August, Friday

    Time Temperature Precipitation Wind Pressure Humidity
    00:00 +18°C° 0.1 mm 1 mps 685 mmHg 92%
    01:00 +18°C° 0.1 mm 1 mps 685 mmHg 92%
    02:00 +16°C° 0.1 mm 1 mps 684 mmHg 91%
    03:00 +16°C° 0.1 mm 1 mps 684 mmHg 91%
    04:00 +15°C° 0.1 mm 1 mps 684 mmHg 90%
    05:00 +16°C° 0 mm 1 mps 684 mmHg 88%
    06:00 +18°C° 0 mm 1 mps 684 mmHg 86%
    07:00 +19°C° 0 mm 1 mps 685 mmHg 84%
    08:00 +20°C° 0.1 mm 1 mps 685 mmHg 78%
    09:00 +22°C° 0.1 mm 1 mps 685 mmHg 72%
    10:00 +23°C° 0.1 mm 1 mps 685 mmHg 66%
    11:00 +23°C° 0.8 mm 1 mps 685 mmHg 68%
    12:00 +23°C° 0.8 mm 1 mps 684 mmHg 70%
    13:00 +23°C° 0.8 mm 1 mps 684 mmHg 72%
    14:00 +21°C° 1.8 mm 2 mps 684 mmHg 77%
    15:00 +20°C° 1.8 mm 2 mps 683 mmHg 83%
    16:00 +19°C° 1.8 mm 2 mps 683 mmHg 88%
    17:00 +18°C° 2.8 mm 2 mps 683 mmHg 91%
    18:00 +18°C° 2.8 mm 2 mps 683 mmHg 94%
    19:00 +17°C° 2.8 mm 2 mps 683 mmHg 96%
    20:00 +16°C° 2.7 mm 2 mps 683 mmHg 97%
    21:00 +16°C° 2.7 mm 2 mps 683 mmHg 97%
    22:00 +15°C° 2.7 mm 2 mps 684 mmHg 97%
    23:00 +15°C° 1.7 mm 2 mps 684 mmHg 97%

    25 August, Saturday

    Time Temperature Precipitation Wind Pressure Humidity
    00:00 +14°C° 1.7 mm 2 mps 684 mmHg 97%
    01:00 +14°C° 1.7 mm 2 mps 684 mmHg 97%
    02:00 +13°C° 1.7 mm 2 mps 683 mmHg 97%
    03:00 +13°C° 1.7 mm 2 mps 683 mmHg 97%
    04:00 +13°C° 1.7 mm 2 mps 683 mmHg 97%
    05:00 +12°C° 0.6 mm 2 mps 683 mmHg 97%
    06:00 +12°C° 0.6 mm 2 mps 683 mmHg 97%
    07:00 +12°C° 0.6 mm 2 mps 684 mmHg 97%
    08:00 +12°C° 0.1 mm 2 mps 684 mmHg 94%
    09:00 +13°C° 0.1 mm 2 mps 684 mmHg 92%
    10:00 +13°C° 0.1 mm 2 mps 684 mmHg 89%
    11:00 +14°C° 0.1 mm 2 mps 684 mmHg 85%
    12:00 +14°C° 0.1 mm 2 mps 683 mmHg 81%
    13:00 +15°C° 0.1 mm 2 mps 683 mmHg 78%
    14:00 +15°C° 0.1 mm 2 mps 683 mmHg 77%
    15:00 +15°C° 0.1 mm 2 mps 683 mmHg 77%
    16:00 +15°C° 0.1 mm 2 mps 682 mmHg 77%
    17:00 +14°C° 0.1 mm 2 mps 682 mmHg 81%
    18:00 +14°C° 0.1 mm 1 mps 682 mmHg 84%
    19:00 +13°C° 0.1 mm 1 mps 682 mmHg 88%
    20:00 +13°C° 0.3 mm 1 mps 682 mmHg 89%
    21:00 +12°C° 0.3 mm 1 mps 682 mmHg 91%
    22:00 +12°C° 0.3 mm 1 mps 682 mmHg 92%
    23:00 +12°C° 0.9 mm 1 mps 682 mmHg 93%
    Show more